When you browse on this site, cookies collect data to enhance your experience and personalize the content and advertising you see.
Visit our Privacy Policy to learn more. By continuing to use the site, you agree to this use of cookies and data.

Stündliche Wetter Baraki Barak

Heute, 7 August, Freitag

Zeit Temperatur Niederschläge Wind Luftdruck Luftfeuchtigkeit
00:00 +27°C° 0 mm 1 m/S 600 mmHg 40%
01:00 +26°C° 0 mm 1 m/S 599 mmHg 43%
02:00 +25°C° 0 mm 1 m/S 599 mmHg 46%
03:00 +23°C° 0 mm 0 m/S 599 mmHg 48%
04:00 +22°C° 0 mm 0 m/S 599 mmHg 50%
05:00 +21°C° 0 mm 0 m/S 598 mmHg 52%
06:00 +23°C° 0 mm 0 m/S 599 mmHg 47%
07:00 +24°C° 0 mm 0 m/S 600 mmHg 42%
08:00 +25°C° 0 mm 0 m/S 601 mmHg 38%
09:00 +28°C° 0 mm 1 m/S 601 mmHg 34%
10:00 +30°C° 0 mm 1 m/S 601 mmHg 30%
11:00 +31°C° 0 mm 2 m/S 601 mmHg 26%
12:00 +32°C° 0 mm 2 m/S 601 mmHg 24%
13:00 +34°C° 0 mm 2 m/S 601 mmHg 22%
14:00 +35°C° 0 mm 2 m/S 601 mmHg 20%
15:00 +35°C° 0 mm 2 m/S 601 mmHg 20%
16:00 +35°C° 0 mm 3 m/S 600 mmHg 20%
17:00 +35°C° 0 mm 3 m/S 600 mmHg 19%
18:00 +34°C° 0 mm 3 m/S 600 mmHg 22%
19:00 +33°C° 0 mm 3 m/S 600 mmHg 26%
20:00 +31°C° 0 mm 3 m/S 599 mmHg 29%
21:00 +30°C° 0 mm 2 m/S 599 mmHg 31%
22:00 +29°C° 0 mm 2 m/S 599 mmHg 33%
23:00 +28°C° 0 mm 1 m/S 599 mmHg 35%

Morgen, 8 August, Samstag

Zeit Temperatur Niederschläge Wind Luftdruck Luftfeuchtigkeit
00:00 +27°C° 0 mm 1 m/S 599 mmHg 36%
01:00 +26°C° 0 mm 1 m/S 598 mmHg 36%
02:00 +25°C° 0 mm 1 m/S 598 mmHg 37%
03:00 +25°C° 0 mm 1 m/S 598 mmHg 38%
04:00 +22°C° 0 mm 0 m/S 597 mmHg 39%
05:00 +21°C° 0 mm 0 m/S 597 mmHg 40%
06:00 +22°C° 0 mm 0 m/S 597 mmHg 36%
07:00 +26°C° 0 mm 1 m/S 598 mmHg 33%
08:00 +27°C° 0 mm 1 m/S 599 mmHg 29%
09:00 +28°C° 0 mm 1 m/S 599 mmHg 26%
10:00 +30°C° 0 mm 1 m/S 599 mmHg 23%
11:00 +31°C° 0 mm 1 m/S 599 mmHg 20%
12:00 +32°C° 0 mm 2 m/S 599 mmHg 18%
13:00 +34°C° 0 mm 2 m/S 599 mmHg 16%
14:00 +35°C° 0 mm 2 m/S 599 mmHg 14%
15:00 +36°C° 0 mm 2 m/S 599 mmHg 14%
16:00 +36°C° 0 mm 3 m/S 599 mmHg 14%
17:00 +36°C° 0 mm 3 m/S 598 mmHg 13%
18:00 +35°C° 0 mm 3 m/S 598 mmHg 17%
19:00 +34°C° 0 mm 2 m/S 598 mmHg 20%
20:00 +31°C° 0 mm 2 m/S 598 mmHg 24%
21:00 +30°C° 0 mm 2 m/S 598 mmHg 27%
22:00 +29°C° 0 mm 2 m/S 598 mmHg 31%
23:00 +28°C° 0 mm 1 m/S 597 mmHg 34%

übermorgen, 9 August, Sonntag

Zeit Temperatur Niederschläge Wind Luftdruck Luftfeuchtigkeit
00:00 +28°C° 0 mm 1 m/S 597 mmHg 37%
01:00 +27°C° 0 mm 1 m/S 597 mmHg 40%
02:00 +26°C° 0 mm 1 m/S 596 mmHg 42%
03:00 +26°C° 0 mm 1 m/S 596 mmHg 43%
04:00 +24°C° 0 mm 0 m/S 596 mmHg 44%
05:00 +24°C° 0 mm 0 m/S 596 mmHg 45%
06:00 +24°C° 0 mm 0 m/S 596 mmHg 42%
07:00 +25°C° 0 mm 0 m/S 597 mmHg 39%
08:00 +25°C° 0 mm 0 m/S 597 mmHg 36%
09:00 +29°C° 0 mm 1 m/S 597 mmHg 33%
10:00 +30°C° 0 mm 1 m/S 598 mmHg 30%
11:00 +31°C° 0 mm 1 m/S 598 mmHg 27%
12:00 +32°C° 0 mm 2 m/S 598 mmHg 26%
13:00 +34°C° 0 mm 2 m/S 598 mmHg 24%
14:00 +35°C° 0 mm 3 m/S 598 mmHg 23%
15:00 +34°C° 0 mm 3 m/S 597 mmHg 26%
16:00 +34°C° 0 mm 2 m/S 597 mmHg 28%
17:00 +32°C° 0 mm 2 m/S 596 mmHg 31%
18:00 +31°C° 0.1 mm 2 m/S 596 mmHg 35%
19:00 +30°C° 0.1 mm 2 m/S 596 mmHg 39%
20:00 +29°C° 0.1 mm 2 m/S 597 mmHg 43%
21:00 +29°C° 0 mm 2 m/S 597 mmHg 43%
22:00 +29°C° 0 mm 1 m/S 597 mmHg 43%
23:00 +29°C° 0 mm 1 m/S 597 mmHg 43%

10 August, Montag

Zeit Temperatur Niederschläge Wind Luftdruck Luftfeuchtigkeit
00:00 +28°C° 0 mm 1 m/S 597 mmHg 42%
01:00 +28°C° 0 mm 1 m/S 597 mmHg 41%
02:00 +27°C° 0 mm 1 m/S 596 mmHg 40%
03:00 +26°C° 0 mm 1 m/S 596 mmHg 42%
04:00 +23°C° 0 mm 0 m/S 595 mmHg 43%
05:00 +22°C° 0 mm 0 m/S 595 mmHg 45%
06:00 +23°C° 0 mm 0 m/S 595 mmHg 41%
07:00 +24°C° 0 mm 0 m/S 596 mmHg 37%
08:00 +25°C° 0 mm 0 m/S 596 mmHg 33%
09:00 +29°C° 0 mm 1 m/S 597 mmHg 30%
10:00 +30°C° 0 mm 1 m/S 597 mmHg 28%
11:00 +32°C° 0 mm 1 m/S 597 mmHg 25%
12:00 +33°C° 0 mm 1 m/S 597 mmHg 23%
13:00 +35°C° 0 mm 2 m/S 598 mmHg 21%
14:00 +36°C° 0 mm 2 m/S 598 mmHg 19%
15:00 +36°C° 0 mm 3 m/S 597 mmHg 21%
16:00 +36°C° 0 mm 4 m/S 597 mmHg 23%
17:00 +36°C° 0 mm 5 m/S 597 mmHg 25%
18:00 +35°C° 0 mm 5 m/S 597 mmHg 26%
19:00 +34°C° 0 mm 4 m/S 597 mmHg 28%
20:00 +33°C° 0 mm 4 m/S 597 mmHg 30%
21:00 +31°C° 0 mm 3 m/S 597 mmHg 29%
22:00 +30°C° 0 mm 3 m/S 597 mmHg 29%
23:00 +29°C° 0 mm 2 m/S 597 mmHg 28%

11 August, Dienstag

Zeit Temperatur Niederschläge Wind Luftdruck Luftfeuchtigkeit
00:00 +29°C° 0 mm 2 m/S 597 mmHg 30%
01:00 +28°C° 0 mm 1 m/S 596 mmHg 32%
02:00 +27°C° 0 mm 1 m/S 596 mmHg 34%
03:00 +24°C° 0 mm 0 m/S 596 mmHg 34%
04:00 +23°C° 0 mm 0 m/S 595 mmHg 35%
05:00 +22°C° 0 mm 0 m/S 595 mmHg 36%
06:00 +23°C° 0 mm 0 m/S 596 mmHg 33%
07:00 +24°C° 0 mm 0 m/S 596 mmHg 30%
08:00 +27°C° 0 mm 1 m/S 597 mmHg 27%
09:00 +28°C° 0 mm 1 m/S 597 mmHg 25%
10:00 +30°C° 0 mm 1 m/S 598 mmHg 23%
11:00 +31°C° 0 mm 1 m/S 598 mmHg 21%
12:00 +32°C° 0 mm 2 m/S 598 mmHg 19%
13:00 +35°C° 0 mm 2 m/S 598 mmHg 17%
14:00 +36°C° 0 mm 3 m/S 598 mmHg 15%
15:00 +36°C° 0 mm 4 m/S 598 mmHg 14%
16:00 +36°C° 0 mm 5 m/S 598 mmHg 14%
17:00 +38°C° 0 mm 6 m/S 598 mmHg 14%
18:00 +35°C° 0 mm 5 m/S 597 mmHg 15%
19:00 +33°C° 0 mm 4 m/S 597 mmHg 16%
20:00 +30°C° 0 mm 4 m/S 597 mmHg 17%
21:00 +29°C° 0 mm 3 m/S 597 mmHg 20%
22:00 +28°C° 0 mm 2 m/S 597 mmHg 22%
23:00 +27°C° 0 mm 2 m/S 597 mmHg 24%

12 August, Mittwoch

Zeit Temperatur Niederschläge Wind Luftdruck Luftfeuchtigkeit
00:00 +26°C° 0 mm 1 m/S 597 mmHg 25%
01:00 +25°C° 0 mm 1 m/S 596 mmHg 25%
02:00 +24°C° 0 mm 1 m/S 596 mmHg 26%
03:00 +23°C° 0 mm 1 m/S 595 mmHg 27%
04:00 +22°C° 0 mm 1 m/S 595 mmHg 28%
05:00 +21°C° 0 mm 1 m/S 595 mmHg 28%
06:00 +22°C° 0 mm 1 m/S 595 mmHg 26%
07:00 +23°C° 0 mm 1 m/S 596 mmHg 24%
08:00 +24°C° 0 mm 1 m/S 597 mmHg 22%
09:00 +26°C° 0 mm 1 m/S 597 mmHg 19%
10:00 +28°C° 0 mm 1 m/S 597 mmHg 16%
11:00 +29°C° 0 mm 1 m/S 598 mmHg 13%
12:00 +31°C° 0 mm 2 m/S 598 mmHg 11%
13:00 +32°C° 0 mm 2 m/S 598 mmHg 9%
14:00 +34°C° 0 mm 2 m/S 598 mmHg 7%
15:00 +35°C° 0 mm 3 m/S 598 mmHg 7%
16:00 +35°C° 0 mm 4 m/S 598 mmHg 7%
17:00 +36°C° 0 mm 4 m/S 598 mmHg 7%
18:00 +33°C° 0 mm 4 m/S 597 mmHg 8%
19:00 +30°C° 0 mm 3 m/S 597 mmHg 10%
20:00 +28°C° 0 mm 2 m/S 597 mmHg 12%
21:00 +27°C° 0 mm 2 m/S 597 mmHg 13%
22:00 +26°C° 0 mm 2 m/S 597 mmHg 15%
23:00 +25°C° 0 mm 1 m/S 597 mmHg 16%
Mehr zeigen